EW0362 Weather Reports


Display with metric or nautical units.
time (UTC)temp
F
wind
direction
speed
MPH
gust
MPH
rain 1hr
in
rain 24hr
in
rain mn
in
humidity
%
barometer
mb
20260504213705 73 269 2.0 3.0 0.00 0.00 0.00 34 1005.5
20260504213205 73 281 2.0 6.0 0.00 0.00 0.00 35 1005.5
20260504212205 73 181 2.0 8.0 0.00 0.00 0.00 35 1005.5
20260504210707 73 232 3.0 7.0 0.00 0.00 0.00 32 1005.5
20260504205206 73 335 3.0 9.0 0.00 0.00 0.00 33 1005.5
20260504204205 73 211 5.0 9.0 0.00 0.00 0.00 33 1005.7
20260504203206 73 192 1.0 3.0 0.00 0.00 0.00 33 1005.5
20260504202706 74 226 3.0 7.0 0.00 0.00 0.00 31 1005.5
20260504202205 74 207 2.0 5.0 0.00 0.00 0.00 33 1005.6
20260504201706 74 210 1.0 3.0 0.00 0.00 0.00 32 1005.6
20260504201205 74 265 3.0 6.0 0.00 0.00 0.00 32 1005.6
20260504200706 74 198 2.0 3.0 0.00 0.00 0.00 33 1005.5
20260504200205 74 198 1.0 6.0 0.00 0.00 0.00 32 1005.7
20260504195206 73 219 3.0 6.0 0.00 0.00 0.00 32 1005.6
20260504194206 73 219 3.0 9.0 0.00 0.00 0.00 31 1005.7
20260504193705 73 284 3.0 8.0 0.00 0.00 0.00 31 1005.6
20260504192205 73 176 2.0 5.0 0.00 0.00 0.00 33 1005.7
20260504185205 73 194 4.0 12.0 0.00 0.00 0.00 31 1006.0
20260504184705 73 167 3.0 7.0 0.00 0.00 0.00 31 1006.0
20260504183706 73 181 3.0 10.0 0.00 0.00 0.00 31 1006.0
20260504183205 73 216 2.0 6.0 0.00 0.00 0.00 31 1006.1
20260504182205 72 243 4.0 7.0 0.00 0.00 0.00 33 1006.1
20260504180205 71 230 5.0 9.0 0.00 0.00 0.00 32 1006.3
20260504175706 71 242 5.0 9.0 0.00 0.00 0.00 32 1006.4
20260504175205 72 229 5.0 12.0 0.00 0.00 0.00 33 1006.4
20260504174707 71 182 4.0 7.0 0.00 0.00 0.00 33 1006.3
20260504173706 71 231 3.0 8.0 0.00 0.00 0.00 33 1006.4
20260504173205 71 248 3.0 7.0 0.00 0.00 0.00 34 1006.5
20260504172205 70 235 2.0 8.0 0.00 0.00 0.00 35 1006.8
20260504171706 70 245 6.0 12.0 0.00 0.00 0.00 35 1006.8
20260504171205 70 274 3.0 7.0 0.00 0.00 0.00 35 1006.6
20260504160206 67 254 5.0 17.0 0.00 0.00 0.00 37 1007.4
20260504141205 63 202 1.0 7.0 0.00 0.00 0.00 47 1008.4
20260504140205 62 253 3.0 7.0 0.00 0.00 0.00 48 1008.7
20260504130205 57 233 2.0 5.0 0.00 0.00 0.00 54 1009.3
20260504120205 50 258 2.0 6.0 0.00 0.01 0.00 66 1009.9
20260504110705 43 211 0.0 1.0 0.00 0.01 0.00 82 1009.9
20260504100205 43 257 0.0 0.0 0.00 0.01 0.00 81 1010.0
20260504081705 41 257 0.0 0.0 0.00 0.01 0.00 87 1009.9
20260504080205 41 257 0.0 0.0 0.00 0.01 0.00 88 1009.9
20260504070206 38 257 0.0 0.0 0.00 0.01 0.00 89 1009.8
20260504050205 34 257 0.0 0.0 0.00 0.01 0.00 88 1009.9
20260504043705 34 257 0.0 0.0 0.00 0.01 0.00 86 1009.9
20260504042704 34 257 0.0 0.0 0.00 0.01 0.00 86 1009.9
20260504042205 35 257 0.0 0.0 0.00 0.01 0.00 86 1009.9
20260504041704 35 257 0.0 0.0 0.00 0.01 0.00 85 1009.9
20260504040705 35 257 0.0 0.0 0.00 0.01 0.00 85 1009.8
20260504040206 35 257 0.0 0.0 0.00 0.01 0.00 85 1009.7
20260504035704 35 257 0.0 0.0 0.00 0.01 0.01 84 1009.7
20260504035205 35 257 0.0 0.0 0.00 0.01 0.01 84 1009.7
20260504034705 36 257 0.0 0.0 0.00 0.01 0.01 84 1009.6
20260504033204 36 257 0.0 0.0 0.00 0.01 0.01 82 1009.6
20260504031705 37 257 0.0 0.0 0.00 0.01 0.01 82 1009.5
20260504030704 37 257 0.0 0.0 0.00 0.01 0.01 81 1009.6
20260504030205 37 257 0.0 0.0 0.00 0.01 0.01 80 1009.6
20260504025205 38 257 0.0 0.0 0.00 0.01 0.01 79 1009.6
20260504024204 38 257 0.0 0.0 0.00 0.01 0.01 78 1009.5
20260504023705 38 257 0.0 0.0 0.00 0.01 0.01 78 1009.4
20260504022705 39 257 0.0 0.0 0.00 0.01 0.01 76 1009.5
20260504022206 39 257 0.0 0.0 0.00 0.01 0.01 76 1009.4
20260504014204 42 257 0.0 0.0 0.00 0.01 0.01 69 1009.1
20260504013705 42 257 0.0 0.0 0.00 0.01 0.01 68 1009.1
20260504012706 43 257 0.0 0.0 0.00 0.01 0.01 67 1009.0
20260504011705 43 257 0.0 0.0 0.00 0.01 0.01 65 1009.0
20260504010705 44 257 0.0 0.0 0.00 0.01 0.01 65 1008.8
20260504010204 45 257 0.0 0.0 0.00 0.01 0.01 62 1008.8
20260504005704 45 257 0.0 0.0 0.00 0.01 0.01 62 1008.7
20260504004704 46 257 0.0 0.0 0.00 0.01 0.01 60 1008.6
20260504004205 46 257 0.0 0.0 0.00 0.01 0.01 60 1008.5
20260504003705 47 257 0.0 0.0 0.00 0.01 0.01 59 1008.4
20260504003204 47 257 0.0 0.0 0.00 0.01 0.01 60 1008.4
20260504001705 48 257 0.0 0.0 0.00 0.01 0.01 56 1008.2
20260504001205 49 257 0.0 0.0 0.00 0.01 0.01 53 1008.2
20260504000205 49 257 0.0 0.0 0.00 0.01 0.01 53 1008.1
20260503235205 50 257 0.0 0.0 0.00 0.01 0.01 51 1007.9
20260503234205 50 258 2.0 3.0 0.00 0.01 0.01 50 1007.8
20260503233205 51 277 1.0 3.0 0.00 0.01 0.01 49 1007.7
20260503232205 51 293 1.0 5.0 0.00 0.01 0.01 50 1007.6
20260503231704 51 282 1.0 3.0 0.00 0.01 0.01 48 1007.5
20260503231205 52 264 2.0 8.0 0.00 0.01 0.01 47 1007.5
20260503230204 52 280 2.0 7.0 0.00 0.01 0.01 46 1007.3
20260503225705 52 252 2.0 3.0 0.00 0.01 0.01 46 1007.3
20260503224704 52 285 2.0 9.0 0.00 0.01 0.01 45 1007.3
20260503223706 52 294 2.0 9.0 0.00 0.01 0.01 44 1007.1
20260503221705 53 350 3.0 10.0 0.00 0.01 0.01 44 1006.8
20260503221205 53 274 3.0 7.0 0.00 0.01 0.01 45 1006.8
20260503220705 53 212 2.0 5.0 0.00 0.01 0.01 46 1006.8
20260503220205 53 287 2.0 7.0 0.00 0.01 0.01 45 1006.7
20260503215704 53 268 3.0 8.0 0.00 0.02 0.01 46 1006.7
20260503215205 53 268 3.0 6.0 0.00 0.02 0.01 44 1006.6
20260503214704 53 280 3.0 8.0 0.00 0.02 0.01 44 1006.7